Moses Lake, WA

4:50 PM PST on January 17, 2018 (GMT -0800)
Grant County International

Weather History for KMWH - November, 2014

Change the Weather History Date:

Saturday, November 29, 2014

  Actual Average Record
Temperature  
Mean Temperature 27 °F 32 °F  
Max Temperature 41 °F 39 °F 63 °F (2003)
Min Temperature 12 °F 26 °F -6 °F (1985)
Degree Days  
Heating Degree Days 38 33  
Month to date heating degree days 807 790  
Since 1 July heating degree days 1155 1427  
Cooling Degree Days 0 0  
Month to date cooling degree days 0 0  
Year to date cooling degree days 952 615  
Moisture  
Dew Point 7 °F    
Average Humidity 57    
Maximum Humidity 78    
Minimum Humidity 35    
Precipitation  
Precipitation T in 0.04 in 0.15 in (2000)
Month to date precipitation 0.76 1.15  
Year to date precipitation 6.00 7.62  
Sea Level Pressure  
Sea Level Pressure 29.85 in    
Wind  
Wind Speed 16 mph (NNW)    
Max Wind Speed 38 mph    
Max Gust Speed 45 mph    
Visibility 10 miles    
Events      
T = Trace of Precipitation, MM = Missing Value Source: NWS Daily Summary

Daily Weather History Graph

Daily Weather History Graph

Search for Another Location

Airport or City:

Trip Planner

Search our weather history database for the weather conditions in past years. The results will help you decide how hot, cold, wet, or windy it might be!

Date:

Astronomy

Nov. 29, 2014 Rise Set
Actual Time 7:20 AM PST 4:10 PM PST
Civil Twilight 6:46 AM PST 4:44 PM PST
Nautical Twilight 6:07 AM PST 5:23 PM PST
Astronomical Twilight 5:31 AM PST 5:59 PM PST
Moon 12:34 PM PST (11/29) No Moon Set
Length of Visible Light 9h 58m
Length of Day
8h 49m
First Quarter, 55% of the Moon is Illuminated
Nov 29
First Quarter
Dec 6
Full
Dec 14
Last Quarter
Dec 21
New
Dec 28
First Quarter

Hourly Weather History & Observations

Time (PST) Temp. Windchill Dew Point Humidity Pressure Visibility Wind Dir Wind Speed Gust Speed Precip Events Conditions
12:52 AM 34.0 °F 27.2 °F 26.1 °F 73% 29.56 in 10.0 mi North 8.1 mph - N/A   Clear
1:52 AM 30.9 °F 27.5 °F 25.0 °F 79% 29.46 in 10.0 mi NNE 3.5 mph - N/A   Clear
2:52 AM 30.0 °F 21.7 °F 24.1 °F 79% 29.49 in 10.0 mi NNE 9.2 mph - N/A   Clear
3:52 AM 28.9 °F 21.9 °F 21.9 °F 75% 29.52 in 10.0 mi North 6.9 mph - N/A   Overcast
4:52 AM 28.0 °F 18.1 °F 19.0 °F 69% 29.55 in 10.0 mi North 11.5 mph - N/A   Scattered Clouds
5:52 AM 27.0 °F 15.2 °F 17.1 °F 66% 29.59 in 10.0 mi North 15.0 mph - N/A   Overcast
6:52 AM 26.1 °F 14.5 °F 15.1 °F 63% 29.64 in 10.0 mi North 13.8 mph - N/A   Overcast
7:52 AM 25.0 °F 12.2 °F 14.0 °F 63% 29.68 in 10.0 mi North 16.1 mph - N/A   Overcast
8:52 AM 24.1 °F 11.5 °F 10.0 °F 55% 29.72 in 10.0 mi North 15.0 mph - N/A   Overcast
9:52 AM 23.0 °F 7.6 °F 8.1 °F 53% 29.74 in 10.0 mi North 21.9 mph 29.9 mph N/A   Overcast
10:52 AM 24.1 °F 9.0 °F 5.0 °F 44% 29.78 in 10.0 mi North 21.9 mph 29.9 mph N/A   Scattered Clouds
11:52 AM 25.0 °F 9.9 °F 6.1 °F 45% 29.82 in 10.0 mi NNW 23.0 mph 27.6 mph N/A   Mostly Cloudy
12:52 PM 24.1 °F 8.7 °F 3.0 °F 40% 29.84 in 10.0 mi North 23.0 mph 31.1 mph N/A   Overcast
1:52 PM 24.1 °F 8.0 °F 1.0 °F 37% 29.88 in 10.0 mi North 25.3 mph 35.7 mph N/A   Overcast
2:52 PM 24.1 °F 6.9 °F -0.9 °F 34% 29.93 in 10.0 mi North 29.9 mph 34.5 mph 0.00 in   Mostly Cloudy
3:52 PM 21.0 °F 4.3 °F -0.9 °F 38% 29.99 in 10.0 mi North 24.2 mph 32.2 mph N/A   Mostly Cloudy
4:52 PM 19.9 °F 2.5 °F -2.9 °F 37% 30.04 in 10.0 mi North 25.3 mph 31.1 mph N/A   Mostly Cloudy
5:52 PM 18.0 °F 4.2 °F -2.0 °F 41% 30.08 in 10.0 mi NNW 13.8 mph - N/A   Clear
6:52 PM 18.0 °F -0.5 °F -5.1 °F 36% 30.08 in 10.0 mi North 26.5 mph 38.0 mph N/A   Clear
7:52 PM 18.0 °F 6.9 °F -4.0 °F 38% 30.15 in 10.0 mi NW 9.2 mph - N/A   Clear
8:52 PM 17.1 °F 1.5 °F -2.9 °F 41% 30.18 in 10.0 mi NNW 17.3 mph - N/A   Clear
9:52 PM 15.1 °F 5.2 °F -0.9 °F 49% 30.22 in 10.0 mi NW 6.9 mph - N/A   Clear
10:52 PM 15.1 °F 5.2 °F -0.0 °F 51% 30.25 in 10.0 mi WNW 6.9 mph - N/A   Clear
11:52 PM 14.0 °F 8.2 °F -0.0 °F 54% 30.28 in 10.0 mi NNW 3.5 mph - N/A   Clear